Wadesboro, NC

7:57 PM EST on February 24, 2017 (GMT -0500)
Anson County

Weather History for KAFP - November, 2013

Change the Weather History Date:

Friday, November 29, 2013

  Actual Average (KCLT) Record (KCLT)
Temperature  
Mean Temperature 38 °F -  
Max Temperature 54 °F 57 °F 76 °F (2001)
Min Temperature 23 °F 36 °F 20 °F (1955)
Degree Days  
Heating Degree Days 27    
Moisture  
Dew Point 24 °F    
Average Humidity 69    
Maximum Humidity 93    
Minimum Humidity 23    
Precipitation  
Precipitation 0.00 in - - ()
Sea Level Pressure  
Sea Level Pressure 30.53 in    
Wind  
Wind Speed 1 mph (NE)    
Max Wind Speed 9 mph    
Max Gust Speed -    
Visibility 9 miles    
Events      
Averages and records for this station are not official NWS values.
T = Trace of Precipitation, MM = Missing Value Source: NWS Daily Summary

Daily Weather History Graph

Daily Weather History Graph

Search for Another Location

Airport or City:

Trip Planner

Search our weather history database for the weather conditions in past years. The results will help you decide how hot, cold, wet, or windy it might be!

Date:

Astronomy

Nov. 29, 2013 Rise Set
Actual Time 7:08 AM EST 5:08 PM EST
Civil Twilight 6:40 AM EST 5:36 PM EST
Nautical Twilight 6:09 AM EST 6:07 PM EST
Astronomical Twilight 5:39 AM EST 6:38 PM EST
Moon 3:19 AM EST (11/29) 2:46 PM EST (11/29)
Length of Visible Light 10h 55m
Length of Day
10h 00m
Waning Crescent, 14% of the Moon is Illuminated
Nov 29
Waning Crescent
Dec 2
New
Dec 9
First Quarter
Dec 17
Full
Dec 25
Last Quarter

Hourly Weather History & Observations

Time (EST) Temp. Windchill Dew Point Humidity Pressure Visibility Wind Dir Wind Speed Gust Speed Precip Events Conditions
12:15 AM 29.7 °F - 24.4 °F 81% 30.50 in 10.0 mi Calm Calm - N/A   Clear
12:35 AM 28.9 °F - 23.9 °F 81% 30.50 in 10.0 mi Calm Calm - N/A   Clear
12:55 AM 28.2 °F - 23.5 °F 83% 30.49 in 10.0 mi Calm Calm - N/A   Clear
1:15 AM 27.5 °F - 23.9 °F 86% 30.49 in 10.0 mi Calm Calm - N/A   Clear
1:35 AM 27.3 °F - 23.5 °F 86% 30.49 in 10.0 mi Calm Calm - N/A   Clear
1:55 AM 26.6 °F - 23.5 °F 88% 30.48 in 10.0 mi Calm Calm - N/A   Clear
2:15 AM 27.1 °F - 23.5 °F 86% 30.49 in 10.0 mi Calm Calm - N/A   Clear
2:35 AM 27.1 °F - 24.1 °F 88% 30.49 in 10.0 mi Calm Calm - N/A   Clear
2:55 AM 26.4 °F - 24.1 °F 91% 30.49 in 10.0 mi Calm Calm - N/A   Clear
3:15 AM 24.8 °F - 22.1 °F 89% 30.48 in 10.0 mi Calm Calm - N/A   Clear
3:35 AM 24.1 °F - 21.7 °F 91% 30.48 in 10.0 mi Calm Calm - N/A   Clear
3:55 AM 24.8 °F - 22.3 °F 90% 30.48 in 10.0 mi Calm Calm - N/A   Clear
4:15 AM 24.6 °F - 22.1 °F 90% 30.49 in 10.0 mi Calm Calm - N/A   Clear
4:35 AM 24.8 °F - 22.1 °F 89% 30.49 in 10.0 mi Calm Calm - N/A   Clear
4:55 AM 25.0 °F - 22.3 °F 89% 30.49 in 10.0 mi Calm Calm - N/A   Clear
5:15 AM 25.5 °F - 23.0 °F 90% 30.49 in 10.0 mi Calm Calm - N/A   Clear
5:35 AM 24.8 °F - 23.0 °F 93% 30.50 in 10.0 mi Calm Calm - N/A   Clear
5:55 AM 24.6 °F - 22.8 °F 93% 30.50 in 10.0 mi Calm Calm - N/A   Clear
6:15 AM 23.0 °F - 21.2 °F 93% 30.50 in 10.0 mi Calm Calm - N/A   Clear
6:35 AM 24.1 °F - 21.9 °F 91% 30.51 in 10.0 mi Calm Calm - N/A   Clear
6:55 AM 23.7 °F - 21.4 °F 91% 30.52 in 10.0 mi Calm Calm - N/A   Clear
7:15 AM 24.4 °F - 22.1 °F 91% 30.53 in 10.0 mi Calm Calm - N/A   Clear
7:35 AM 23.7 °F - 21.7 °F 92% 30.54 in 10.0 mi Calm Calm - N/A   Clear
7:55 AM 25.2 °F - 22.8 °F 91% 30.54 in 10.0 mi Calm Calm - N/A   Clear
8:15 AM 26.6 °F - 23.9 °F 90% 30.54 in 10.0 mi Calm Calm - N/A   Clear
8:35 AM 28.2 °F - 25.2 °F 88% 30.55 in 10.0 mi Calm Calm - N/A   Clear
8:55 AM 30.2 °F - 26.8 °F 87% 30.56 in 10.0 mi Calm Calm - N/A   Clear
9:15 AM 32.0 °F - 28.2 °F 86% 30.56 in 10.0 mi Calm Calm - N/A   Clear
9:35 AM 34.3 °F - 29.5 °F 82% 30.56 in 10.0 mi Calm Calm - N/A   Clear
9:55 AM 36.7 °F - 28.2 °F 71% 30.57 in 10.0 mi Calm Calm - N/A   Clear
10:15 AM 40.1 °F - 29.3 °F 65% 30.57 in 10.0 mi Calm Calm - N/A   Clear
10:35 AM 41.9 °F 40.0 °F 27.0 °F 55% 30.57 in 10.0 mi ENE 3.5 mph - N/A   Clear
10:55 AM 44.2 °F 40.3 °F 25.3 °F 47% 30.56 in 10.0 mi North 6.9 mph - N/A   Clear
11:15 AM 46.6 °F - 24.4 °F 42% 30.56 in 10.0 mi NNE 8.1 mph - N/A   Clear
11:35 AM 47.3 °F - 24.4 °F 41% 30.56 in 10.0 mi NNE 5.8 mph - N/A   Clear
11:55 AM 48.7 °F - 23.5 °F 37% 30.55 in 10.0 mi NE 4.6 mph - N/A   Clear
12:15 PM 50.9 °F - 21.6 °F 32% 30.54 in 10.0 mi NNE 5.8 mph - N/A   Clear
12:35 PM 51.3 °F - 18.5 °F 27% 30.53 in 10.0 mi NE 5.8 mph - N/A   Clear
12:55 PM 51.4 °F - 18.0 °F 27% 30.52 in 10.0 mi Calm Calm - N/A   Clear
1:15 PM 52.7 °F - 16.7 °F 24% 30.52 in 10.0 mi NNE 6.9 mph - N/A   Clear
1:35 PM 53.1 °F - 16.7 °F 24% 30.51 in 10.0 mi ENE 3.5 mph - N/A   Clear
1:55 PM 53.8 °F - 16.9 °F 23% 30.51 in 10.0 mi North 3.5 mph - N/A   Clear
2:15 PM 53.8 °F - 16.9 °F 23% 30.51 in 10.0 mi NE 9.2 mph - N/A   Clear
2:35 PM 53.6 °F - 16.5 °F 23% 30.50 in 10.0 mi Calm Calm - N/A   Clear
2:55 PM 53.6 °F - 16.5 °F 23% 30.50 in 10.0 mi NNE 6.9 mph - N/A   Clear
3:15 PM 53.8 °F - 18.0 °F 24% 30.50 in 10.0 mi North 5.8 mph - N/A   Clear
3:35 PM 53.6 °F - 18.9 °F 26% 30.50 in 10.0 mi North 4.6 mph - N/A   Clear
3:55 PM 53.2 °F - 18.9 °F 26% 30.51 in 1.2 mi NE 5.8 mph - N/A   Haze
4:15 PM 53.2 °F - 20.8 °F 28% 30.51 in 1.0 mi East 3.5 mph - N/A   Haze
4:35 PM 52.3 °F - 21.9 °F 30% 30.52 in 1.2 mi East 4.6 mph - N/A   Haze
4:55 PM 50.4 °F - 22.8 °F 34% 30.51 in 0.8 mi Calm Calm - N/A   Haze
5:15 PM 47.5 °F - 25.5 °F 42% 30.52 in 1.8 mi Calm Calm - N/A   Haze
5:35 PM 44.6 °F - 27.5 °F 51% 30.53 in 10.0 mi Calm Calm - N/A   Clear
5:55 PM 40.6 °F - 29.1 °F 64% 30.54 in 1.2 mi Calm Calm - N/A   Haze
6:15 PM 38.5 °F - 29.5 °F 70% 30.54 in 0.8 mi Calm Calm - N/A   Haze
6:35 PM 36.7 °F - 28.9 °F 74% 30.54 in 1.5 mi Calm Calm - N/A   Haze
6:55 PM 35.6 °F - 28.6 °F 76% 30.55 in 0.8 mi Calm Calm - N/A   Haze
7:15 PM 34.3 °F - 28.9 °F 81% 30.56 in 1.0 mi Calm Calm - N/A   Haze
7:35 PM 33.8 °F - 27.9 °F 79% 30.56 in 10.0 mi Calm Calm - N/A   Clear
7:55 PM 33.8 °F - 29.1 °F 83% 30.57 in 10.0 mi Calm Calm - N/A   Clear
8:15 PM 32.2 °F - 27.3 °F 82% 30.58 in 10.0 mi Calm Calm - N/A   Clear
8:35 PM 32.0 °F - 27.3 °F 83% 30.58 in 10.0 mi Calm Calm - N/A   Clear
8:55 PM 31.5 °F - 27.1 °F 84% 30.59 in 10.0 mi Calm Calm - N/A   Clear
9:15 PM 31.1 °F - 26.6 °F 83% 30.59 in 10.0 mi Calm Calm - N/A   Clear
9:35 PM 30.4 °F - 26.8 °F 86% 30.60 in 10.0 mi Calm Calm - N/A   Clear
9:55 PM 30.2 °F - 26.6 °F 86% 30.59 in 10.0 mi Calm Calm - N/A   Clear
10:15 PM 30.0 °F - 26.8 °F 88% 30.60 in 10.0 mi Calm Calm - N/A   Clear
10:35 PM 29.3 °F - 26.1 °F 88% 30.60 in 10.0 mi Calm Calm - N/A   Clear
10:55 PM 28.9 °F - 25.5 °F 87% 30.61 in 10.0 mi Calm Calm - N/A   Clear
11:15 PM 27.7 °F - 25.2 °F 90% 30.61 in 10.0 mi Calm Calm - N/A   Clear
11:35 PM 28.0 °F - 25.5 °F 90% 30.61 in 10.0 mi Calm Calm - N/A   Clear
11:55 PM 27.9 °F - 25.7 °F 92% 30.61 in 10.0 mi Calm Calm - N/A   Clear